Location: Plainartige
(45.6866°N, 1.7993°E)
Time: 19:39:14
(UTC+00:00)

RS-15 - Pass Details

Date: 02 July 2022
Orbit: 1881 x 2163 km, 64.8° (Epoch: 19 August)

Event Time Altitude Azimuth Distance (km) Brightness Sun altitude
Rises 01:20:02 0° 321° (NW) 5,697 10.9 -18.7°
Reaches altitude 10° 01:24:10 10° 311° (NW) 4,679 10.3 -18.5°
Maximum altitude 01:33:49 29° 259° (WSW) 3,322 8.9 -17.8°
Enters shadow 01:39:24 20° 221° (SW) 3,777 8.9 -17.4°
